Theta_e
306 303 302 296 292 295 288 285 287 289 304 309 317 316 316 317 320 321 323 328 329 334 336 336 338 339 340 340 341 342 342 344
307 308 308 301 299 296 292 288 287 291 300 304 310 312 314 314 316 321 323 326 331 332 335 336 338 340 340 340 341 342 343 344
303 301 298 300 298 295 294 292 290 288 296 311 311 314 313 314 318 321 323 324 328 331 333 337 340 340 340 341 342 342 343 344
297 302 305 301 297 296 294 293 291 291 294 316 314 316 315 315 319 322 325 325 327 329 331 330 332 333 337 341 342 344 346 346
296 298 300 302 303 296 294 294 293 291 294 316 314 314 315 315 319 321 324 325 326 324 325 333 331 331 330 330 331 332 335 342
293 294 297 299 305 306 296 293 294 296 302 308 311 311 314 316 320 321 324 325 326 326 325 325 332 333 333 333 332 333 334 334
298 302 302 303 305 306 302 297 294 300 303 306 309 311 313 316 319 320 321 324 325 326 327 328 328 333 333 335 333 331 331 331
291 301 301 299 302 304 305 305 302 302 300 309 310 311 310 312 316 315 317 321 325 325 326 326 330 330 333 333 332 331 330 329
288 298 296 291 297 302 302 304 303 297 301 307 306 308 309 311 315 313 314 318 321 321 324 326 327 331 327 328 330 332 327 327
288 288 284 292 301 306 303 305 305 304 306 308 308 309 310 315 316 312 314 315 317 319 321 322 328 329 330 329 328 327 325 328
288 285 292 297 301 301 299 297 306 305 306 308 309 309 308 317 315 314 315 316 316 319 320 321 323 327 329 328 328 329 330 329
287 287 286 295 303 308 304 293 306 307 306 306 306 298 302 310 313 314 315 316 316 317 318 318 319 322 326 328 329 328 330 331
289 288 293 301 305 307 292 293 305 307 306 306 302 304 309 312 312 313 314 315 316 316 316 317 318 320 320 325 327 329 330 333
288 287 287 306 305 297 299 303 306 307 308 306 308 309 310 309 309 311 311 312 314 313 315 317 318 318 317 318 322 325 328 330
292 292 299 304 303 306 306 305 306 306 308 309 307 306 307 308 309 309 310 310 312 313 313 316 316 317 316 319 320 321 323 326
297 299 302 305 307 308 309 308 310 308 307 308 306 308 309 310 309 310 311 311 311 311 311 310 313 315 317 319 319 319 320 323
295 299 303 306 307 309 309 309 308 308 308 308 308 309 309 307 307 309 310 311 312 311 311 311 312 313 315 316 317 318 320 323
296 301 301 302 307 309 306 306 307 306 305 307 308 308 308 308 309 309 309 310 310 311 311 312 312 313 313 315 316 317 319 322
303 304 304 306 309 309 307 307 307 306 306 306 307 307 307 306 307 309 309 309 308 309 309 311 312 314 314 315 316 318 318 320
Wind_Speed
6 2 2 3 3 4 8 3 3 3 6 3 20 20 22 23 22 23 23 22 12 7 6 7 8 9 6 8 9 10 11 9
5 4 8 6 5 5 5 2 1 2 3 6 17 19 21 21 20 20 20 20 18 12 4 5 5 7 8 7 6 4 7 7
5 7 3 5 4 7 6 3 5 1 2 2 7 11 16 17 16 16 18 17 15 14 13 10 6 7 7 6 7 6 7 5
3 3 4 4 3 4 6 3 2 4 4 1 5 6 8 14 14 12 12 13 13 12 13 12 11 12 11 8 5 2 5 7
9 6 5 6 4 3 5 3 1 4 4 2 4 5 6 8 13 12 13 15 13 13 11 9 8 8 12 13 12 11 10 7
8 4 3 4 6 5 3 4 4 3 3 3 7 9 9 9 10 11 13 11 11 12 9 8 6 1 2 1 13 5 5 2
5 4 5 4 5 8 4 2 2 5 4 3 6 8 8 8 11 13 12 13 13 11 9 7 7 6 4 7 5 10 5 7
3 5 5 6 5 5 5 5 5 4 1 2 6 6 9 8 9 11 11 11 10 15 14 11 10 9 6 5 5 7 6 6
2 5 1 2 1 1 3 2 3 4 2 3 5 8 8 8 6 8 10 10 9 10 13 14 11 6 8 6 3 5 6 8
4 3 3 2 2 3 4 2 2 1 1 2 3 7 11 4 3 8 11 12 10 7 11 11 12 12 7 7 5 4 6 6
5 2 4 5 4 4 4 4 4 1 3 4 6 6 7 2 4 8 10 11 10 6 8 10 10 10 11 11 6 6 8 9
3 5 7 5 3 1 5 5 4 0 2 4 5 6 5 7 13 15 12 9 11 13 9 7 11 8 9 11 9 11 11 11
2 2 5 4 2 1 3 5 2 2 2 3 3 6 10 12 13 13 11 12 12 11 10 10 9 7 8 8 9 10 11 9
3 2 7 4 2 6 5 2 1 2 2 5 9 11 11 13 13 13 13 14 14 12 11 10 8 7 9 9 10 11 10 9
8 6 3 1 3 2 3 2 1 2 5 6 11 12 13 13 14 13 13 11 12 10 12 11 11 7 8 10 9 12 11 11
3 3 4 4 1 2 2 1 2 3 6 8 12 14 16 14 13 15 13 12 11 11 11 14 12 10 9 9 7 9 11 11
0 1 2 3 4 3 2 1 4 5 5 8 11 13 12 13 13 13 12 12 12 12 13 15 13 11 11 11 8 8 9 8
6 8 5 3 6 5 3 1 4 5 7 7 9 12 13 12 12 12 12 12 12 13 14 15 15 13 12 11 9 8 9 6
5 5 4 5 7 4 3 3 3 4 4 9 10 11 11 12 13 14 11 11 12 13 14 14 16 15 12 11 9 8 7 7
Wind_Direction
27 38 121 175 61 164 102 8 63 308 341 5 349 349 357 358 1 4 356 357 357 122 156 171 184 176 182 174 184 185 196 198
296 24 27 104 146 56 10 90 1 8 66 306 338 341 340 352 354 356 358 3 8 8 134 153 153 136 146 158 170 177 199 200
40 16 298 4 29 57 111 101 151 202 210 344 311 322 330 337 349 353 359 3 10 18 24 32 61 108 134 135 141 171 170 193
162 295 334 65 89 90 113 239 81 136 238 12 304 315 324 331 344 358 5 8 14 16 25 34 58 64 56 40 64 165 177 179
329 351 359 52 8 92 113 82 134 127 230 185 350 337 319 334 345 354 3 9 17 15 14 17 11 50 82 77 47 4 16 22
189 185 136 66 7 9 99 115 175 193 173 330 334 347 349 359 350 351 357 6 4 13 358 352 320 320 56 249 95 272 260 278
42 64 86 90 53 27 74 72 112 167 144 327 327 312 314 325 350 357 1 358 352 348 345 332 342 323 291 278 205 193 213 232
72 41 62 88 42 61 46 74 80 101 181 46 305 327 337 333 350 351 346 341 341 339 337 339 333 331 322 289 219 202 239 305
131 143 12 20 343 81 115 95 141 185 198 3 340 331 319 314 335 337 336 338 336 331 324 321 319 297 306 308 298 279 300 245
134 119 256 253 241 191 143 161 84 114 90 340 299 297 296 276 310 328 329 329 327 315 316 314 306 312 277 288 282 242 242 263
119 118 294 305 186 175 171 260 167 191 344 336 323 304 282 224 332 315 296 301 304 294 283 299 300 290 299 295 284 273 281 274
137 149 214 222 156 26 136 280 114 298 265 300 330 323 287 308 316 305 305 298 301 307 297 288 303 309 303 285 296 295 294 294
127 196 291 228 182 121 113 233 205 204 252 267 243 234 275 296 293 296 292 303 302 302 297 299 294 306 307 306 292 288 294 285
86 88 277 159 91 168 199 184 221 295 257 283 286 288 294 302 300 298 304 308 305 302 301 303 310 309 309 302 302 309 307 291
168 210 239 170 195 142 142 146 346 319 305 284 292 300 301 300 302 297 297 300 302 299 301 301 311 303 301 304 309 314 316 316
101 217 192 184 186 173 172 186 357 305 302 308 301 303 300 305 319 315 304 301 296 296 297 298 302 304 293 295 300 301 307 307
309 69 67 240 200 172 140 16 326 327 310 306 311 312 321 315 310 304 310 311 310 303 297 296 301 299 297 297 292 282 289 287
216 192 153 214 176 157 161 18 351 336 332 333 323 320 317 310 305 307 314 312 311 308 305 304 298 296 293 290 291 286 289 285
175 147 125 133 143 154 133 54 7 350 329 342 336 333 327 320 321 314 318 325 324 324 317 311 302 297 293 292 287 278 276 283